Wind_Speed
8 8 8 8 9 9 9 9 10 10 10 9 9 9 8 9 9 9 9 8 8 8 8 8 8 8 9 9 9 10 10 10 10 10 10 10 10 10 11 11 11 12 12
9 8 8 9 9 9 10 10 10 10 10 10 9 9 9 9 9 9 8 8 8 8 8 9 9 9 9 10 10 10 10 10 11 11 11 11 11 12 12 12 12 12 12
10 9 9 9 9 10 10 11 11 11 10 11 10 9 9 10 10 9 9 8 9 9 9 9 10 10 10 11 12 12 12 11 12 12 12 12 13 13 13 13 13 13 13
10 10 10 10 10 10 11 11 11 11 11 11 10 10 10 11 11 10 10 10 10 10 10 10 10 11 11 12 12 13 13 12 12 13 13 14 14 15 14 14 14 14 14
11 10 10 10 11 11 11 12 12 12 11 11 11 11 11 11 11 11 11 11 10 11 11 11 11 11 11 12 13 13 13 13 13 13 14 15 15 15 15 15 15 15 14
12 12 11 11 11 12 12 12 12 12 12 11 11 11 12 12 12 12 12 12 12 12 12 13 13 12 12 12 12 13 13 14 14 14 15 15 15 15 15 15 15 15 15
13 13 12 12 12 12 12 13 12 12 12 12 12 12 12 12 12 13 13 13 14 14 14 14 14 14 13 13 13 14 14 14 15 15 16 16 16 15 15 16 16 16 16
14 14 13 13 13 13 13 13 13 13 12 12 12 12 12 12 13 13 14 14 14 15 15 15 14 14 14 15 15 15 15 16 16 16 16 16 16 16 16 16 16 17 17
14 14 14 14 13 13 13 13 13 13 13 13 13 13 13 13 13 14 14 14 14 14 15 15 15 15 15 16 16 16 15 15 15 16 16 16 16 17 17 17 17 16 17
15 14 14 14 14 14 14 14 14 13 14 14 14 14 14 14 14 14 14 14 14 14 15 15 17 16 16 16 15 15 14 14 15 15 15 16 17 17 17 17 17 17 18
16 16 14 14 15 15 15 14 14 14 14 14 15 15 15 15 15 15 15 16 16 16 16 17 17 17 16 16 15 15 15 15 15 16 16 16 17 18 18 19 19 19 18
16 16 16 15 15 15 15 15 15 15 15 15 15 16 16 16 16 16 16 17 17 17 17 17 17 17 16 16 15 15 15 16 17 17 17 17 17 17 18 19 19 19 19
17 16 16 16 16 16 16 16 16 16 16 16 16 16 16 17 17 17 17 17 17 18 17 17 17 17 17 16 16 17 16 16 17 17 17 17 18 18 18 18 18 19 20
17 17 17 17 16 16 16 17 17 17 17 17 17 17 17 17 17 17 17 17 18 17 18 18 18 18 18 17 17 18 18 17 17 18 18 18 18 18 19 19 20 20 21
18 18 18 17 17 17 18 18 18 18 18 18 18 18 18 18 18 18 18 18 18 19 19 19 18 18 18 18 18 18 18 18 18 19 19 19 19 19 20 20 21 22 22
19 19 18 18 18 18 18 19 19 19 19 19 19 19 20 20 20 20 19 20 20 20 19 19 19 19 19 19 20 20 19 19 19 20 20 20 20 20 21 21 22 22 23
20 20 20 19 19 19 19 19 19 19 19 19 19 19 19 20 20 20 20 20 20 20 19 20 20 20 20 20 20 20 20 21 21 21 21 21 21 21 21 22 22 22 23
21 21 20 20 20 20 20 20 20 19 20 19 19 19 19 19 20 20 20 21 21 21 20 21 21 21 21 22 21 22 22 22 22 21 21 21 21 22 22 22 23 23 23
22 22 21 21 21 21 21 21 21 21 21 20 20 20 20 20 21 21 21 21 22 22 22 21 22 22 23 23 23 23 24 24 23 22 22 22 22 22 23 24 24 24 24
22 22 22 22 22 22 22 22 22 22 21 20 21 21 21 21 22 22 22 22 22 22 22 22 23 23 24 24 24 25 25 24 24 23 23 23 24 24 24 25 25 26 26
23 23 24 23 23 23 23 23 23 22 22 22 22 22 22 23 23 23 23 23 23 23 23 23 24 24 24 24 24 25 25 24 24 25 25 25 25 26 26 26 26 26 27
25 25 25 25 25 25 25 24 24 24 24 24 23 23 24 24 24 24 24 24 24 25 25 24 25 25 25 25 25 25 26 26 26 26 27 27 27 27 27 27 27 27 27
28 28 28 27 27 27 26 26 25 26 26 25 25 25 25 25 25 25 25 25 25 25 25 25 25 25 25 26 26 26 27 27 27 28 28 28 28 29 29 29 28 28 27
30 30 30 29 29 28 28 28 27 27 27 26 25 25 25 25 25 25 25 26 26 25 25 25 25 26 26 26 26 27 27 28 28 28 29 29 29 30 30 30 29 29 29
32 32 32 31 31 30 30 29 29 28 28 27 27 27 27 27 27 27 27 27 27 27 27 26 26 26 26 27 27 28 28 28 29 29 29 29 29 29 30 30 30 30 30
33 33 33 32 32 31 30 30 30 29 29 29 30 29 29 29 29 28 29 29 29 28 28 27 27 27 28 28 29 29 29 29 30 30 30 30 30 30 30 30 30 31 32
Wind_Direction
310 310 311 312 314 315 315 316 317 317 312 306 304 304 305 302 298 296 292 287 286 286 284 283 278 277 273 269 272 274 273 272 271 270 268 270 272 273 276 277 276 275 275
310 308 311 312 313 313 314 313 314 314 311 309 307 301 301 304 304 302 291 283 284 287 288 285 279 280 277 274 273 273 272 271 270 270 269 269 271 272 274 276 277 276 277
312 310 311 311 312 311 312 313 313 313 308 307 306 301 299 300 301 298 292 285 282 283 287 284 282 280 278 278 276 273 270 268 267 269 269 269 270 272 273 273 275 276 277
310 309 309 310 312 311 310 310 312 313 309 307 305 301 301 299 296 294 290 287 284 283 284 283 283 285 280 277 278 274 271 268 267 270 271 272 273 273 272 273 273 274 276
308 308 308 309 311 312 309 309 310 310 307 305 303 301 299 297 296 294 291 290 287 287 286 284 285 288 283 280 278 276 274 270 270 272 274 274 274 274 273 272 273 274 275
305 306 306 306 308 310 309 306 307 306 305 304 303 300 298 295 293 291 291 291 291 289 288 286 285 286 285 282 280 275 276 271 272 274 275 276 275 274 273 272 272 274 276
299 300 301 302 303 304 305 304 302 303 303 303 303 301 298 295 293 291 289 289 289 288 287 286 284 285 285 285 283 278 277 274 272 273 272 273 273 274 272 273 274 275 275
299 298 298 300 299 300 301 301 298 299 299 300 300 299 299 298 296 293 290 288 287 286 287 286 285 282 282 284 283 280 280 278 275 273 273 274 273 274 274 275 277 276 275
301 302 299 299 299 300 300 298 298 297 297 299 299 299 299 297 296 295 293 290 287 286 286 287 285 282 282 285 285 283 282 279 276 275 275 274 275 275 274 275 275 275 275
302 301 299 297 298 300 299 297 295 295 295 296 299 301 299 296 294 294 293 292 288 286 285 285 285 283 282 285 284 281 283 281 279 278 278 275 274 275 275 274 277 278 278
300 302 300 298 298 299 299 298 297 296 295 296 297 298 298 297 296 294 294 293 289 286 284 284 283 284 284 286 284 282 282 283 283 282 280 277 275 275 276 276 277 279 280
299 301 300 299 298 298 296 296 296 295 295 295 295 295 296 295 295 294 293 292 291 289 287 285 282 283 284 284 282 283 285 285 286 286 284 282 278 278 278 278 277 278 280
297 298 298 297 297 296 296 297 297 296 294 295 295 294 295 296 296 294 292 291 291 290 288 285 282 282 282 281 281 282 284 285 285 286 285 283 283 282 281 280 280 280 281
296 297 296 296 295 295 296 298 298 296 293 293 294 293 294 294 295 294 292 291 291 289 287 286 283 279 279 280 281 283 283 285 287 288 286 285 283 283 282 282 283 283 284
294 295 295 294 294 294 296 298 298 296 294 293 294 293 293 293 292 292 291 288 288 287 286 284 282 279 277 278 279 281 283 285 286 288 287 285 283 283 283 283 284 284 284
293 293 293 293 292 293 295 297 296 295 294 293 294 294 294 292 291 290 289 288 288 288 286 282 282 279 277 277 279 280 282 284 286 286 285 283 283 283 283 283 284 284 284
291 291 292 293 293 293 295 297 296 295 294 295 296 296 296 294 292 291 289 289 288 287 284 283 283 282 280 281 282 282 282 283 286 286 285 284 283 283 283 284 284 284 284
289 290 290 290 291 292 294 295 295 294 294 294 295 295 296 295 294 293 292 290 288 285 283 282 281 281 281 281 282 283 283 283 285 285 284 284 282 283 284 286 286 286 286
288 288 288 288 289 290 292 292 292 293 292 292 294 295 295 294 293 292 291 290 289 286 283 283 282 280 279 279 280 281 283 283 283 284 285 284 284 283 284 285 285 286 286
285 285 286 287 288 289 289 290 291 291 291 291 292 294 295 296 295 293 291 290 289 287 284 283 284 282 281 280 280 281 282 282 282 282 283 284 284 284 283 285 285 286 286
283 283 284 285 286 287 287 288 289 289 289 289 290 293 295 296 296 295 292 290 289 287 286 286 286 284 282 281 280 280 281 282 282 282 282 283 284 285 285 285 285 286 286
280 281 282 283 285 285 285 285 286 287 287 287 288 289 292 294 295 295 293 291 289 287 286 286 286 286 284 283 280 280 281 282 282 282 282 283 284 285 286 285 285 286 286
278 279 280 282 282 283 283 283 283 285 286 286 287 288 289 291 293 294 293 292 290 288 287 286 287 286 285 284 282 280 281 283 282 281 282 283 283 283 285 285 284 285 284
277 278 279 279 280 280 281 282 283 283 285 286 286 287 288 289 291 292 293 292 290 289 288 287 286 285 285 285 284 283 282 283 282 282 282 283 283 283 283 283 283 283 283
276 277 277 277 278 278 278 279 280 281 283 284 285 286 287 288 288 289 291 292 290 288 289 287 287 286 286 285 285 284 284 284 282 283 283 284 285 285 284 283 282 281 282
275 275 275 275 275 276 276 276 277 278 280 282 283 285 286 285 286 287 288 289 289 289 288 286 286 287 287 286 286 285 285 284 284 284 284 284 285 285 285 284 284 283 283
Height
5853 5852 5851 5850 5849 5849 5848 5847 5846 5845 5844 5843 5843 5842 5842 5841 5841 5840 5840 5840 5840 5840 5840 5840 5840 5841 5841 5841 5842 5842 5843 5844 5844 5845 5845 5845 5846 5846 5846 5847 5847 5847 5847
5851 5851 5850 5849 5848 5847 5846 5846 5845 5844 5843 5842 5841 5841 5840 5840 5839 5839 5838 5838 5838 5838 5838 5838 5838 5839 5839 5839 5840 5840 5841 5841 5842 5842 5843 5843 5844 5843 5844 5844 5844 5844 5844
5850 5849 5849 5848 5847 5846 5845 5844 5843 5842 5841 5841 5840 5839 5839 5838 5838 5837 5837 5837 5836 5836 5836 5836 5836 5836 5837 5837 5837 5837 5838 5838 5839 5839 5840 5840 5840 5841 5841 5841 5841 5841 5841
5848 5848 5847 5846 5845 5844 5843 5842 5841 5840 5839 5838 5838 5837 5837 5836 5836 5835 5835 5835 5834 5834 5834 5834 5834 5834 5834 5834 5834 5834 5835 5835 5835 5836 5836 5837 5837 5837 5838 5838 5837 5837 5838
5847 5846 5845 5844 5843 5842 5841 5840 5839 5838 5837 5836 5836 5835 5834 5834 5833 5833 5833 5833 5832 5832 5832 5832 5831 5831 5831 5831 5831 5831 5831 5832 5832 5832 5832 5833 5833 5833 5833 5834 5834 5834 5834
5845 5844 5843 5842 5841 5840 5839 5838 5837 5836 5835 5834 5833 5833 5832 5831 5831 5830 5830 5830 5830 5829 5829 5829 5829 5828 5828 5828 5828 5828 5828 5828 5828 5829 5829 5828 5828 5828 5829 5829 5829 5830 5830
5843 5842 5841 5840 5839 5838 5837 5836 5835 5834 5833 5832 5831 5830 5830 5829 5828 5828 5827 5827 5827 5826 5826 5826 5825 5825 5825 5825 5825 5825 5825 5824 5824 5824 5824 5824 5824 5824 5824 5825 5825 5825 5825
5840 5840 5839 5838 5837 5835 5834 5833 5832 5831 5830 5830 5829 5828 5827 5826 5825 5825 5824 5824 5823 5823 5822 5822 5822 5822 5821 5821 5821 5821 5820 5820 5820 5820 5820 5820 5819 5820 5820 5820 5820 5821 5821
5838 5837 5836 5835 5834 5832 5831 5830 5829 5828 5828 5827 5826 5825 5824 5823 5822 5822 5821 5820 5820 5819 5819 5818 5818 5818 5817 5817 5817 5816 5816 5815 5815 5815 5815 5815 5815 5815 5815 5815 5816 5816 5816
5835 5834 5833 5831 5831 5829 5828 5827 5826 5825 5825 5824 5823 5822 5821 5820 5819 5818 5817 5817 5816 5816 5815 5815 5814 5813 5812 5813 5812 5812 5812 5811 5811 5811 5810 5810 5810 5810 5810 5811 5811 5811 5811
5831 5830 5829 5828 5827 5826 5825 5824 5823 5822 5821 5821 5820 5819 5818 5817 5816 5815 5814 5813 5813 5812 5812 5811 5810 5809 5809 5808 5808 5808 5808 5807 5807 5806 5806 5806 5805 5805 5806 5806 5806 5805 5806
5828 5827 5826 5825 5824 5823 5822 5821 5820 5819 5818 5817 5816 5815 5814 5813 5812 5811 5810 5809 5808 5808 5807 5806 5806 5805 5805 5805 5804 5804 5804 5803 5803 5802 5801 5801 5801 5800 5800 5800 5800 5800 5800
5825 5824 5823 5822 5821 5819 5818 5817 5816 5815 5814 5813 5812 5811 5810 5809 5808 5806 5805 5804 5804 5803 5802 5802 5802 5801 5801 5800 5800 5800 5799 5799 5798 5798 5797 5796 5796 5795 5795 5795 5795 5795 5794
5821 5820 5819 5818 5817 5816 5814 5813 5812 5811 5810 5809 5808 5807 5806 5805 5803 5802 5801 5800 5799 5798 5798 5797 5797 5796 5796 5796 5796 5795 5795 5794 5793 5793 5792 5791 5791 5790 5790 5790 5789 5789 5788
5817 5816 5815 5814 5813 5812 5811 5809 5808 5807 5806 5804 5803 5802 5801 5800 5799 5798 5797 5796 5795 5794 5793 5792 5792 5792 5792 5791 5791 5790 5790 5789 5788 5788 5787 5786 5785 5785 5784 5784 5784 5783 5782
5813 5812 5811 5810 5809 5807 5806 5805 5804 5802 5801 5800 5798 5797 5796 5795 5794 5793 5791 5790 5789 5788 5788 5787 5787 5787 5786 5786 5785 5785 5785 5784 5783 5782 5781 5781 5780 5780 5779 5778 5778 5777 5777
5809 5808 5807 5805 5804 5803 5802 5800 5799 5797 5796 5795 5794 5792 5791 5789 5788 5787 5786 5785 5784 5783 5782 5782 5782 5781 5781 5781 5780 5780 5779 5778 5778 5777 5776 5775 5774 5774 5773 5772 5772 5771 5770
5804 5803 5802 5801 5799 5798 5797 5795 5794 5793 5792 5790 5789 5787 5786 5784 5783 5782 5780 5779 5778 5777 5777 5776 5776 5776 5775 5775 5774 5774 5773 5772 5771 5771 5770 5769 5769 5768 5767 5766 5766 5765 5763
5799 5798 5797 5796 5794 5793 5792 5790 5789 5788 5786 5785 5784 5782 5780 5779 5777 5776 5775 5773 5772 5771 5771 5770 5770 5770 5769 5769 5768 5767 5766 5766 5765 5764 5764 5763 5762 5761 5760 5760 5759 5758 5757
5793 5792 5791 5790 5789 5788 5786 5785 5784 5782 5781 5780 5778 5777 5775 5773 5771 5770 5769 5767 5766 5765 5765 5764 5764 5763 5763 5762 5761 5760 5760 5759 5759 5758 5757 5756 5755 5754 5753 5753 5752 5751 5750
5787 5786 5785 5784 5783 5781 5780 5779 5778 5776 5775 5774 5772 5771 5769 5767 5766 5764 5762 5761 5760 5759 5758 5758 5757 5756 5756 5755 5754 5753 5752 5752 5752 5751 5750 5749 5748 5747 5746 5745 5744 5743 5742
5780 5779 5778 5777 5776 5775 5773 5772 5771 5770 5769 5768 5766 5765 5763 5761 5760 5758 5756 5755 5753 5752 5752 5751 5750 5749 5748 5747 5746 5746 5745 5744 5744 5743 5743 5742 5740 5739 5738 5737 5736 5735 5734
5772 5771 5770 5769 5768 5767 5766 5765 5764 5763 5762 5761 5759 5758 5756 5755 5753 5752 5750 5748 5747 5745 5744 5743 5743 5742 5741 5740 5739 5738 5737 5736 5736 5735 5734 5733 5732 5731 5730 5729 5728 5726 5725
5764 5763 5762 5761 5760 5759 5758 5757 5757 5755 5754 5753 5752 5751 5750 5748 5747 5745 5743 5742 5740 5738 5737 5736 5735 5734 5733 5732 5731 5730 5729 5728 5727 5726 5725 5724 5723 5722 5721 5720 5718 5717 5716
5755 5754 5753 5753 5752 5751 5750 5749 5748 5747 5746 5746 5745 5743 5742 5741 5739 5738 5736 5734 5733 5731 5730 5728 5727 5726 5725 5724 5722 5721 5720 5719 5718 5717 5716 5715 5714 5713 5711 5710 5709 5708 5706
5745 5744 5744 5743 5742 5742 5741 5740 5740 5739 5738 5737 5736 5735 5734 5733 5731 5730 5729 5726 5725 5723 5721 5720 5719 5717 5716 5715 5713 5712 5711 5710 5709 5708 5707 5706 5705 5704 5702 5701 5699 5698 5697